Tracking 19564 objects as of 19-Mar-2019
HD Live streaming from Space Station
objects crossing your sky now

KYOKKO 1 (EXOS A)

Track KYOKKO 1 (EXOS A) now!
10-day predictions
KYOKKO 1 (EXOS A) is classified as:


NORAD ID: 10664
Int'l Code: 1978-014A
Perigee: 642.2 km
Apogee: 3,955.0 km
Inclination: 65.4 °
Period: 133.9 minutes
Semi major axis: 8669 km
RCS: 1.0778 m2 (large)
Launch date: February 4, 1978
Source: Japan (JPN)
Launch site: KAGOSHIMA SPACE CENTER UNIVERSITY OF TOKYO (KSCUT)
aabbcc
Your satellite tracking list
Your tracking list is empty




NASA's NSSDC Master Catalog

Two Line Element Set (TLE):
1 10664U 78014A   19077.82963530 -.00000090  00000-0 -59255-4 0  9998
2 10664  65.3789   8.3897 1910536 297.0655  44.8068 10.75483785613414
Source of the keplerian elements: AFSPC